This is the latest recevied weather packets stored in our database for station/object AE5HO. If no packets are shown the sender has not sent any weather packets the latest 1 day(s).
| Time | Temp. | Humidity | Pressure | Rain* | Wind** | Luminosity | Snow |
|---|---|---|---|---|---|---|---|
| 1778079984 | 12.22° C | 86% | 1016.5 hPa | 0 mm | - | 6 W/m² | - |
| 1778079681 | 12.22° C | 83% | 1016 hPa | 0 mm | - | 9 W/m² | - |
| 1778079378 | 12.78° C | 83% | 1015.6 hPa | 0 mm | - | 9 W/m² | - |
| 1778076050 | 12.78° C | 82% | 1014.8 hPa | 0 mm | - | 34 W/m² | - |
| 1778072412 | 12.22° C | 83% | 1013.7 hPa | 0 mm | - | 9 W/m² | - |
| 1778072110 | 12.22° C | 83% | 1013.5 hPa | 0 mm | - | 7 W/m² | - |
| 1778069084 | 12.78° C | 79% | 1013.3 hPa | 0 mm | - | 1 W/m² | - |
| 1778068479 | 12.78° C | 78% | 1013.4 hPa | 0 mm | - | 0 W/m² | - |
| 1778067573 | 12.78° C | 77% | 1012.8 hPa | 0 mm | - | 0 W/m² | - |
| 1778066665 | 13.33° C | 77% | 1012.6 hPa | 0 mm | - | 0 W/m² | - |
| 1778064847 | 13.89° C | 76% | 1012.2 hPa | 0 mm | - | 0 W/m² | - |
| 1778064242 | 13.89° C | 76% | 1011.9 hPa | 0 mm | - | 0 W/m² | - |
| 1778063940 | 13.89° C | 76% | 1012 hPa | 0 mm | - | 0 W/m² | - |
| 1778063637 | 13.89° C | 76% | 1011.8 hPa | 0 mm | - | 0 W/m² | - |
| 1778063334 | 13.89° C | 76% | 1011.8 hPa | 0 mm | - | 0 W/m² | - |
| 1778062729 | 13.89° C | 75% | 1011.5 hPa | 0 mm | - | 0 W/m² | - |
| 1778062425 | 13.89° C | 76% | 1011.4 hPa | 0 mm | - | 0 W/m² | - |
| 1778062123 | 13.89° C | 76% | 1011.5 hPa | 0 mm | - | 0 W/m² | - |
| 1778061821 | 13.89° C | 75% | 1011.3 hPa | 0 mm | - | 0 W/m² | - |
| 1778061519 | 13.89° C | 76% | 1011.2 hPa | 0 mm | - | 0 W/m² | - |
| 1778061216 | 13.89° C | 76% | 1011.3 hPa | 0 mm | - | 0 W/m² | - |
| 1778060612 | 14.44° C | 76% | 1011.1 hPa | 0 mm | - | 0 W/m² | - |
| 1778059704 | 14.44° C | 77% | 1011 hPa | 0 mm | - | 0 W/m² | - |
| 1778058796 | 14.44° C | 77% | 1010.9 hPa | 0 mm | - | 0 W/m² | - |
| 1778057887 | 14.44° C | 77% | 1010.7 hPa | 0 mm | - | 0 W/m² | - |
* Rain latest hour (hover to see other rain measurements)
** Current wind speed in m/s (hover to see current wind gust speed)